IRIDIUM 45 [+] (25104 NORAD) Tracking and Keplerian Element Data

This shows tracking and keplerian element data for the satellite.

Feedback or suggestion? Click here.




ElementValue
Catalog25104
NameIRIDIUM 45 [+]
Epoch Orbit9832
Epoch Day348.86111344
Epoch Year2018
RAAN59.1379
Inclination86.3973
Eccentricity0.0001725
Argument of Perigee79.2479
Mean Anonmoly280.8911
Mean Motion14.34225027
Decay Rate1.65E-06
L11 25104U 97082A 18348.86111344 .00000165 00000-0 51956-4 0 9992
L22 25104 86.3973 59.1379 0001725 79.2479 280.8911 14.34225027 98328

Live tracking and technical data element details for IRIDIUM 45 [+] (NORAD 25104). IRIDIUM 45 [+] can be tracked NOW for your location showing map with azimuth and elevation plus other details from your city location.

Track the satellite on the map from your city or location and see movement details for azimuth, elevation, latitude, longitude, range, height, and movement on the map or in text.







IsCatalogInMostPopularTable: catalog: 25104, numindb: 48
Update: records affected: 1



GetName: 25104 IRIDIUM 45 [+]

Hit Count: updated at: Sat, 15 Dec 2018 18:52:00 GMT